Wind_Speed
34 32 32 38 43 43 36 49 59 56 55 55 54 56 58 57 54 51 47 44 43 40 37 34 31 29 26 24 23 22 23 23 25 27 29 30 30 29 29 28 27 25 22 21 18
35 31 30 47 45 49 38 54 58 56 53 52 51 51 53 54 52 49 46 44 42 39 37 33 31 29 27 26 25 24 25 26 28 29 30 30 27 26 23 21 19 16 16 16 17
34 31 54 47 54 48 37 33 59 54 51 50 47 46 49 50 49 46 44 42 40 38 35 33 31 30 28 27 26 27 28 29 29 29 26 24 21 18 17 19 16 17 17 19 21
29 41 51 44 51 42 41 42 54 51 47 45 44 42 44 46 45 42 42 41 38 37 34 33 31 30 30 30 29 30 30 30 29 26 24 21 20 18 20 20 20 22 23 26 28
49 46 42 35 30 38 48 51 51 48 45 42 40 37 38 42 41 40 40 39 35 35 32 31 30 29 31 31 30 29 29 30 28 25 23 22 21 21 25 24 24 26 29 31 34
43 45 32 33 19 47 43 52 49 45 42 39 38 35 34 37 40 41 38 37 37 32 29 25 26 28 31 32 31 30 30 29 27 26 25 25 25 25 28 28 29 30 33 35 36
32 32 29 30 30 40 50 50 46 43 41 38 36 34 32 34 35 37 41 43 41 36 38 37 33 33 33 31 30 31 29 27 27 27 27 26 25 28 31 30 31 33 36 37 38
26 28 33 35 40 44 48 48 43 41 40 37 35 34 31 30 30 31 31 32 34 35 33 32 33 32 30 29 28 28 27 28 27 28 28 30 27 32 35 34 33 36 36 37 36
20 23 30 39 42 47 47 44 41 40 39 37 35 34 30 28 28 28 29 29 29 29 29 29 29 28 27 26 26 26 27 28 29 31 33 35 32 36 37 33 36 37 34 31 32
27 20 35 34 42 45 45 43 40 39 38 38 35 33 32 29 27 27 27 26 26 27 28 28 26 26 26 26 26 27 30 31 33 34 35 36 34 37 37 34 32 29 29 31 29
32 24 32 38 39 41 41 41 38 37 36 33 32 31 31 29 28 27 27 27 26 26 25 24 23 23 23 25 28 30 31 33 34 35 36 36 34 31 29 26 27 28 27 21 17
26 29 20 37 36 36 36 35 33 30 30 30 29 28 27 26 25 25 25 24 23 22 22 21 22 23 25 26 28 29 31 31 31 30 28 27 26 25 27 28 27 21 16 14 10
32 27 31 22 33 34 33 32 31 29 27 27 27 25 24 24 23 22 22 22 22 21 21 22 22 24 25 27 28 27 27 26 25 26 28 29 27 26 22 19 16 14 12 5 3
39 32 29 25 20 28 29 31 29 28 26 25 24 23 22 24 22 22 21 20 20 20 21 22 24 25 24 24 22 20 22 24 24 23 21 19 9 12 14 15 13 8 4 5 1
30 34 30 26 24 19 22 26 26 26 23 25 23 23 20 20 19 18 19 20 21 21 20 21 21 18 17 18 20 19 15 11 9 9 8 9 10 13 10 9 6 6 8 3 3
29 26 25 24 21 20 20 17 17 20 16 18 17 18 17 15 15 14 14 15 16 15 14 13 15 17 17 13 6 3 5 6 7 9 10 10 9 6 2 2 6 8 5 4 8
28 25 25 23 20 20 19 20 19 17 16 14 14 14 13 12 12 12 11 11 10 10 11 10 4 2 2 2 4 5 7 8 8 9 11 10 4 3 3 5 5 3 5 9 13
27 26 25 21 22 19 17 17 18 18 18 17 16 14 12 11 10 9 9 10 8 6 7 6 5 4 5 5 4 6 8 10 11 12 13 11 6 6 4 3 5 9 12 15 18
24 23 22 22 21 20 17 15 15 15 15 14 13 13 11 10 9 9 10 9 9 8 6 6 6 6 5 4 4 5 4 5 8 10 7 3 6 9 9 11 12 14 17 18 18
21 21 21 19 18 19 20 19 17 17 16 15 15 15 14 12 11 10 8 8 6 5 3 1 1 1 1 2 3 4 6 7 9 7 4 4 3 8 12 14 15 17 18 16 17
15 17 17 18 19 17 17 15 15 15 15 14 13 12 10 9 9 8 7 6 5 4 3 3 3 4 4 5 6 7 8 9 9 9 8 4 10 11 14 15 16 16 17 19 21
8 9 11 13 14 15 16 16 16 15 15 14 13 12 10 8 7 6 5 4 4 4 4 4 5 6 7 8 9 10 11 11 11 9 10 12 12 15 21 22 19 17 20 24 25
2 4 6 8 9 10 11 12 11 10 10 9 8 7 6 5 5 4 4 5 5 6 7 8 8 9 10 11 12 12 14 15 16 16 15 18 19 26 31 31 28 24 30 28 28
7 6 6 7 8 9 9 9 9 9 8 7 7 7 7 7 7 8 9 10 11 11 12 12 13 14 15 16 17 16 19 22 23 23 24 17 22 31 37 32 33 33 28 25 25
11 13 13 12 11 12 12 12 11 11 11 11 11 11 11 12 12 13 13 15 15 16 17 18 17 20 21 22 21 20 23 27 27 28 30 26 22 35 33 32 30 27 27 27 25
12 12 16 18 18 17 16 16 16 16 16 16 16 16 17 17 17 17 18 19 19 20 21 22 21 22 21 27 30 28 31 32 34 35 34 33 29 31 29 27 25 27 25 25 27
17 16 15 18 20 21 23 24 23 22 22 22 22 22 22 22 22 23 23 25 25 26 28 28 29 29 25 28 27 27 29 30 31 33 32 29 32 33 32 30 32 30 29 30 30
Wind_Direction
173 167 175 182 176 171 158 191 182 188 189 191 194 194 195 198 199 199 201 205 206 206 211 214 217 222 226 232 238 245 253 260 269 273 275 278 278 277 278 280 280 280 277 271 274
157 158 167 157 154 154 169 190 180 184 185 188 192 194 195 197 199 200 202 207 211 209 211 217 221 226 232 237 243 249 257 265 269 271 274 276 274 275 274 274 276 278 274 276 280
148 151 166 134 166 172 177 159 173 177 181 184 187 192 194 195 199 199 204 209 213 215 215 218 224 229 234 240 246 253 260 264 265 270 271 270 269 265 266 270 275 272 273 276 280
133 155 165 140 131 167 181 166 163 171 176 179 183 188 192 193 195 198 205 209 214 218 219 222 225 230 237 242 248 257 257 258 263 264 265 265 263 265 269 272 277 280 281 282 283
126 138 141 143 147 160 178 156 159 167 171 175 178 181 190 191 191 197 206 211 214 220 224 228 231 236 243 248 249 251 254 258 260 261 262 264 266 268 271 277 279 282 284 286 288
102 118 136 150 144 149 159 150 153 162 167 170 175 175 186 191 189 199 209 214 220 225 223 227 235 240 246 246 249 253 255 256 255 259 263 267 270 272 274 278 282 284 285 287 288
115 115 124 124 138 142 150 145 152 160 165 168 171 174 180 189 186 191 201 211 212 220 233 236 233 238 245 246 247 250 252 253 257 262 267 270 278 279 280 283 286 285 284 288 288
94 116 113 132 149 149 145 144 150 159 165 168 170 171 179 184 186 189 195 202 210 216 219 221 229 234 236 240 244 248 253 258 262 268 274 278 281 282 284 285 285 283 287 288 289
73 105 124 137 146 150 143 144 153 160 165 168 172 172 177 182 185 188 193 199 204 207 211 217 222 229 235 241 246 251 256 261 267 273 276 278 281 279 281 285 285 288 290 290 291
72 84 138 146 150 148 146 149 156 162 166 169 171 173 178 182 187 189 194 201 205 209 213 218 223 229 235 242 249 257 263 266 270 272 275 277 282 285 286 288 287 287 289 290 292
93 81 141 147 148 146 149 155 161 164 165 169 172 175 178 184 187 192 197 204 208 211 217 222 228 235 243 251 259 265 271 276 281 284 285 287 286 286 287 286 287 287 287 289 292
85 93 121 146 148 149 154 159 163 164 166 170 173 178 181 188 192 197 201 207 211 216 221 229 238 246 255 263 270 275 279 282 284 285 286 290 291 291 288 286 285 283 284 293 295
80 91 109 132 150 156 158 159 162 165 169 174 178 180 185 189 195 201 206 209 216 223 231 242 252 260 266 271 276 281 284 288 291 293 294 291 288 285 282 281 284 287 289 275 271
65 84 100 115 144 158 162 166 167 172 174 178 183 184 187 195 199 206 212 219 228 237 245 254 258 264 271 276 280 285 288 289 289 289 287 285 279 280 291 292 286 281 214 181 179
68 74 86 105 125 140 160 166 174 177 182 182 188 188 194 200 208 215 222 230 238 246 251 259 263 266 272 279 283 284 287 292 299 300 294 298 306 310 295 281 249 185 167 189 317
75 80 84 93 117 130 149 162 175 180 181 188 194 197 203 206 214 219 227 234 241 244 249 260 270 274 276 276 268 285 307 316 312 310 311 317 327 333 342 119 135 143 190 281 307
73 79 85 97 114 120 136 151 160 174 186 189 196 197 204 212 218 219 220 223 233 247 259 262 239 181 160 215 261 286 300 317 320 314 314 320 320 136 102 125 152 208 277 296 307
74 76 84 95 101 111 123 137 145 159 166 173 169 173 181 190 198 208 229 229 228 202 170 170 196 230 241 261 275 294 311 322 329 324 312 297 252 228 249 231 254 274 290 298 305
73 76 82 88 96 106 114 123 139 147 151 156 161 163 173 175 176 163 147 145 157 169 199 227 246 266 273 288 301 309 325 333 341 345 348 306 245 233 264 274 284 290 297 304 305
71 77 81 87 95 99 102 106 115 126 135 139 141 140 140 144 148 153 165 180 199 198 184 191 174 264 226 266 284 301 309 315 324 345 12 357 301 269 279 285 289 294 298 305 301
73 80 88 92 93 96 105 111 116 119 123 129 134 136 142 149 149 151 151 159 171 185 211 245 260 273 274 285 296 303 310 309 315 317 319 301 312 297 291 288 288 287 294 297 299
86 85 95 103 109 109 111 114 116 120 124 127 131 136 142 149 159 171 185 202 222 237 247 263 281 284 287 288 293 295 296 295 295 293 298 299 313 310 298 290 289 285 286 288 291
151 132 129 129 130 135 136 136 137 140 143 148 153 161 170 183 197 213 233 247 254 262 267 271 274 273 278 281 280 284 285 290 287 286 290 288 306 305 294 290 295 292 295 293 288
264 234 210 190 174 173 174 178 181 182 186 194 204 213 225 234 244 249 251 252 254 258 263 265 273 277 280 283 283 284 284 284 285 288 283 293 288 287 289 289 287 290 288 282 279
286 268 253 245 234 220 212 212 216 218 223 229 238 245 248 251 255 260 263 263 263 266 268 271 271 276 279 280 281 281 285 285 287 285 284 281 277 276 279 283 287 292 295 295 291
277 280 266 259 254 251 246 240 237 238 243 248 251 253 256 261 264 267 270 270 271 272 275 276 277 275 274 281 285 287 284 284 284 283 287 285 282 283 287 285 287 299 296 294 290
273 267 266 258 255 256 254 254 253 255 257 258 259 261 263 265 266 267 267 270 272 274 276 279 278 279 278 274 275 280 280 280 280 278 282 281 282 286 290 295 299 302 295 292 290
Height
5592 5605 5616 5625 5641 5656 5672 5681 5694 5712 5725 5738 5749 5759 5770 5780 5791 5799 5807 5815 5822 5828 5834 5839 5844 5848 5851 5854 5856 5858 5861 5861 5862 5862 5862 5861 5860 5859 5858 5857 5856 5855 5854 5853 5852
5597 5609 5618 5629 5643 5660 5675 5677 5692 5710 5724 5737 5749 5758 5769 5779 5789 5797 5806 5813 5820 5825 5831 5836 5841 5845 5848 5851 5853 5855 5857 5858 5858 5857 5856 5855 5855 5855 5854 5852 5852 5851 5850 5850 5849
5607 5615 5619 5632 5646 5660 5667 5676 5692 5710 5725 5737 5749 5758 5768 5778 5788 5796 5804 5812 5819 5824 5829 5833 5838 5842 5846 5848 5850 5851 5852 5853 5853 5852 5852 5851 5851 5851 5850 5848 5848 5848 5847 5846 5845
5616 5622 5624 5636 5654 5663 5673 5684 5697 5712 5727 5740 5751 5760 5769 5778 5789 5795 5803 5811 5817 5823 5827 5831 5835 5839 5842 5844 5845 5847 5847 5847 5848 5848 5847 5848 5847 5848 5846 5845 5845 5844 5843 5841 5840
5630 5636 5643 5650 5660 5670 5677 5687 5702 5717 5731 5743 5753 5762 5771 5779 5788 5794 5802 5809 5815 5820 5825 5829 5832 5836 5838 5840 5842 5842 5843 5843 5843 5843 5844 5844 5843 5843 5841 5841 5840 5840 5838 5836 5834
5646 5651 5655 5666 5670 5675 5687 5696 5708 5723 5735 5746 5756 5763 5773 5781 5787 5794 5801 5808 5813 5818 5822 5826 5830 5832 5835 5836 5837 5838 5838 5839 5839 5839 5839 5840 5839 5838 5836 5836 5835 5834 5832 5830 5827
5661 5665 5669 5673 5680 5687 5696 5702 5716 5728 5740 5749 5758 5766 5774 5783 5787 5794 5801 5807 5812 5816 5820 5823 5827 5829 5831 5832 5833 5834 5834 5834 5834 5835 5835 5834 5834 5832 5831 5830 5829 5827 5824 5822 5819
5672 5675 5678 5679 5690 5697 5702 5711 5722 5733 5743 5752 5759 5768 5776 5782 5787 5793 5799 5805 5809 5813 5817 5820 5823 5826 5827 5828 5829 5830 5831 5830 5830 5830 5830 5829 5831 5826 5824 5824 5822 5819 5817 5814 5812
5682 5682 5686 5690 5696 5703 5708 5718 5729 5739 5747 5754 5762 5769 5776 5782 5787 5793 5798 5803 5807 5811 5814 5817 5820 5822 5824 5825 5826 5826 5826 5826 5825 5824 5823 5822 5823 5818 5817 5817 5813 5811 5809 5807 5804
5690 5692 5694 5699 5705 5709 5716 5725 5734 5742 5749 5756 5764 5771 5777 5782 5787 5791 5796 5801 5804 5808 5812 5814 5816 5818 5819 5821 5822 5821 5821 5821 5819 5819 5816 5814 5814 5810 5810 5808 5806 5804 5802 5800 5797
5697 5700 5702 5706 5710 5716 5723 5731 5740 5748 5753 5759 5766 5771 5776 5781 5786 5790 5795 5800 5803 5806 5809 5811 5814 5815 5816 5817 5817 5816 5815 5814 5813 5811 5810 5808 5806 5804 5802 5801 5799 5797 5795 5794 5792
5705 5706 5710 5713 5718 5723 5731 5738 5745 5753 5758 5763 5768 5773 5778 5782 5787 5791 5795 5799 5802 5805 5807 5810 5811 5812 5812 5812 5812 5811 5810 5808 5807 5804 5803 5801 5800 5799 5796 5794 5793 5791 5790 5789 5788
5716 5716 5718 5724 5727 5732 5738 5744 5750 5756 5762 5767 5771 5775 5780 5784 5788 5791 5795 5797 5800 5803 5805 5807 5808 5808 5808 5807 5807 5805 5804 5802 5800 5798 5796 5795 5794 5791 5790 5788 5787 5786 5786 5786 5785
5729 5728 5728 5732 5738 5740 5745 5749 5754 5759 5765 5770 5773 5777 5780 5783 5787 5790 5793 5797 5799 5801 5802 5803 5803 5804 5803 5803 5802 5800 5799 5797 5795 5793 5791 5789 5790 5787 5785 5784 5783 5782 5783 5783 5783
5738 5738 5739 5742 5744 5748 5752 5754 5758 5762 5767 5772 5774 5778 5781 5785 5789 5791 5793 5795 5796 5798 5800 5800 5799 5799 5798 5798 5797 5796 5794 5793 5791 5789 5788 5787 5786 5784 5781 5779 5779 5780 5781 5782 5781
5747 5747 5747 5748 5750 5753 5755 5759 5763 5768 5770 5774 5776 5779 5783 5785 5787 5789 5791 5793 5794 5795 5796 5796 5795 5795 5793 5793 5793 5793 5791 5790 5789 5787 5786 5784 5783 5781 5778 5777 5777 5780 5780 5779 5778
5754 5754 5754 5755 5756 5757 5759 5762 5766 5768 5772 5775 5778 5780 5782 5784 5786 5787 5789 5791 5792 5792 5792 5792 5792 5791 5791 5791 5791 5790 5789 5788 5787 5784 5783 5781 5781 5780 5779 5778 5779 5779 5778 5777 5775
5762 5761 5761 5761 5762 5763 5764 5766 5768 5769 5772 5775 5777 5779 5782 5784 5785 5787 5787 5788 5789 5790 5790 5791 5792 5791 5790 5790 5789 5787 5786 5785 5783 5781 5780 5778 5778 5778 5778 5778 5778 5776 5775 5774 5772
5768 5768 5766 5767 5767 5766 5768 5769 5770 5772 5774 5776 5778 5780 5782 5783 5785 5786 5786 5787 5788 5789 5791 5790 5789 5789 5788 5787 5787 5785 5785 5785 5783 5780 5778 5777 5777 5777 5776 5776 5775 5774 5772 5770 5768
5774 5773 5772 5772 5772 5772 5772 5772 5774 5774 5775 5777 5779 5780 5781 5783 5785 5786 5787 5788 5788 5788 5788 5788 5787 5786 5786 5786 5786 5785 5784 5783 5781 5780 5778 5777 5775 5775 5774 5773 5772 5770 5768 5766 5764
5779 5777 5777 5776 5777 5777 5776 5777 5777 5778 5779 5781 5781 5782 5783 5784 5785 5786 5787 5788 5787 5787 5787 5787 5787 5787 5786 5785 5784 5783 5782 5781 5779 5778 5776 5775 5775 5772 5770 5769 5767 5765 5763 5761 5759
5781 5781 5779 5780 5781 5780 5780 5780 5781 5782 5782 5783 5784 5784 5785 5786 5786 5786 5787 5787 5786 5786 5786 5785 5784 5783 5783 5782 5782 5780 5779 5778 5777 5777 5775 5773 5773 5769 5766 5763 5761 5760 5758 5755 5752
5782 5782 5781 5781 5781 5781 5782 5782 5783 5783 5784 5784 5785 5785 5785 5785 5785 5785 5785 5784 5784 5783 5783 5783 5782 5781 5781 5781 5779 5778 5776 5775 5773 5772 5772 5769 5770 5763 5758 5755 5753 5752 5750 5747 5745
5780 5780 5781 5781 5780 5781 5781 5781 5782 5782 5783 5783 5783 5784 5784 5783 5783 5783 5783 5782 5782 5781 5780 5780 5779 5778 5778 5776 5775 5774 5772 5770 5768 5767 5765 5765 5763 5755 5748 5747 5746 5743 5741 5739 5736
5777 5777 5777 5778 5778 5778 5778 5778 5779 5780 5780 5780 5780 5780 5781 5781 5780 5780 5780 5779 5779 5778 5777 5776 5776 5774 5772 5770 5769 5769 5766 5763 5761 5759 5755 5758 5754 5745 5743 5740 5737 5736 5734 5732 5729
5773 5772 5773 5773 5773 5774 5774 5775 5775 5775 5776 5777 5777 5776 5776 5776 5776 5775 5775 5774 5774 5773 5771 5770 5769 5768 5768 5764 5762 5762 5759 5756 5752 5750 5746 5743 5744 5736 5737 5735 5734 5732 5730 5727 5724
5766 5767 5767 5767 5767 5768 5769 5769 5769 5770 5771 5771 5771 5771 5770 5770 5770 5769 5768 5767 5767 5766 5764 5763 5761 5759 5760 5757 5756 5756 5751 5747 5744 5740 5738 5736 5735 5732 5730 5729 5727 5726 5721 5717 5713